Regional Weather Roundup
Issued by NWS

Home | Current Version | Previous Version | Graphics & Text | Print | Product List | Glossary Off
Versions: 1 2 3 4 5 6 7 8 9 10 11 12 13 14 15 16 17 18 19 20 21 22 23 24 25 26 27 28 29 30 31 32 33 34 35 36 37 38 39 40 41 42 43 44 45 46 47 48 49 50

000
ASUS43 KMKX 291310
RWRWI

WISCONSIN REGIONAL WEATHER ROUNDUP
NATIONAL WEATHER SERVICE MILWAUKEE/SULLIVAN WI
700 AM CST THU JAN 29 2015

NOTE: "FAIR" INDICATES FEW OR NO CLOUDS BELOW 12,000 FEET WITH NO
SIGNIFICANT WEATHER AND/OR OBSTRUCTIONS TO VISIBILITY.

WIZ001-002-006>008-014>016-023>028-291400-
NORTHWEST WISCONSIN

CITY           SKY/WX    TMP DP  RH WIND       PRES   REMARKS
SUPERIOR ARPT  CLOUDY    31  25  78 NW16      30.02R WCI  20
ASHLAND        CLOUDY    30  24  78 NW13G22   29.96R WCI  20
HAYWARD        CLOUDY    29  24  82 MISG      29.96R
SIREN          CLOUDY    31  26  81 NW13G23   30.02R WCI  21
CUMBERLAND     CLOUDY    30  27  86 NW15G29   29.97R WCI  19
RICE LAKE      CLOUDY    31  27  82 NW15G24   29.98R WCI  21
CHETEK         CLOUDY    31  27  84 NW7G24    29.96R WCI  24
LADYSMITH      CLOUDY    31  27  84 NW21G29   29.93R WCI  18
EAU CLAIRE     CLOUDY    32  26  78 N12       29.95R WCI  23
MENOMONIE      CLOUDY    33  28  83 NW16G29   29.97R WCI  23
NEW RICHMOND   CLOUDY    31  27  84 N21G32    30.02R WCI  19
OSCEOLA        CLOUDY    32  30  92 NW12G17   30.05R WCI  23
$$

WIZ003>005-009-010-017-018-291400-
NORTH CENTRAL WISCONSIN

CITY           SKY/WX    TMP DP  RH WIND       PRES   REMARKS
MANITOWISH WTR CLOUDY    27  24  88 NW20G26   29.85R WCI  13
ARBOR VITAE    CLOUDY    29  25  85 N16G25    29.84R WCI  18
WOODRUFF       CLOUDY    29  25  85 N16G25    29.84R WCI  18
RHINELANDER    CLOUDY    27  23  85 NW14G30   29.83R WCI  16
EAGLE RIVER    CLOUDY    28  23  82 N24G31    29.81R WCI  13
LAND O LAKES   CLOUDY    28  25  87 N22G28    29.82R WCI  14
PHILLIPS       CLOUDY    28  25  88 N9G21     29.87R WCI  19
TOMAHAWK       CLOUDY    28  25  89 NW13G20   29.85R WCI  17
MEDFORD        CLOUDY    28  26  93 NW15G22   29.86R FOG     WCI  16
MERRILL        CLOUDY    28  26  94 N12G17    29.84R FOG     WCI  18
$$

WIZ029-030-035-036-043>047-291400-
CENTRAL WISCONSIN

CITY           SKY/WX    TMP DP  RH WIND       PRES   REMARKS
WAUSAU         CLOUDY    28  25  88 NW10      29.84R WCI  19
MOSINEE        CLOUDY    27  27 100 NW10      29.86R FOG     WCI  17
MARSHFIELD     CLOUDY    29  26  89 NW16      29.88R FOG     WCI  17
STEVENS POINT  CLOUDY    27  24  89 NW9       29.86R FOG     WCI  17
WAUPACA        CLOUDY    31  26  81 NW12      29.84R WCI  22
WAUTOMA        CLOUDY    30  27  89 NW14G20   29.85R WCI  19
WISC RAPIDS    CLOUDY    29  24  82 NW13      29.89R WCI  19
CAMP DOUGLAS     N/A     30  30 100 NW13G22   29.90R WCI  20
$$

WIZ011>013-019>022-031-037>040-048>050-291400-
NORTHEAST WISCONSIN

CITY           SKY/WX    TMP DP  RH WIND       PRES   REMARKS
ANTIGO         CLOUDY    26  25  97 NW9       29.81R FOG     WCI  16
SHAWANO        CLOUDY    31  26  80 NW9       29.83R WCI  23
OCONTO         CLOUDY    29  26  90 MISG      29.80R
STURGEON BAY   CLOUDY    28  25  86 NW10      29.80R WCI  19
GREEN BAY      CLOUDY    30  25  81 NW12      29.80R HAZE    WCI  20
MANITOWOC      MIX PCPN  30  28  92 NW12      29.78R FOG     WCI  20
APPLETON       CLOUDY    28  25  86 NW17      29.81R FOG     WCI  16
CLINTONVILLE   CLOUDY    30  25  80 NW9       29.83R WCI  22
OSHKOSH        CLOUDY    30  25  81 NW13      29.81R HAZE    WCI  20
$$

WIZ032>034-041-042-053>061-291400-
SOUTHWEST WISCONSIN

CITY           SKY/WX    TMP DP  RH WIND       PRES   REMARKS
LA CROSSE      CLOUDY    34  29  82 NW10      29.95R WCI  26
SPARTA         CLOUDY    31  29  93 NW8       29.94R FOG     WCI  24
VIROQUA        CLOUDY    30  30 100 NW16G23   29.90R WCI  19
BOSCOBEL       CLOUDY    34  26  72 NW10G18   29.93R WCI  26
PRAIRIE DU CHI CLOUDY    33  28  80 NW10G16   29.94R WCI  25
PLATTEVILLE    CLOUDY    32  28  85 NW18      29.88R WCI  20
$$

WIZ056-057-062-063-064-067-068-291400-
SOUTH CENTRAL WISCONSIN

CITY           SKY/WX    TMP DP  RH WIND       PRES   REMARKS
REEDSBURG      CLOUDY    30  26  86 NW14G20   29.87R WCI  19
BARABOO/DELLS  CLOUDY    29  26  88 N13       29.86R FOG     WCI  19
LONE ROCK      CLOUDY    32  25  75 NW10      29.90R WCI  24
MINERAL POINT  CLOUDY    32  28  86 NW13G23   29.86R WCI  22
MADISON        CLOUDY    31  26  82 NW16G24   29.83R WCI  20
MIDDLETON      CLOUDY    32  28  84 NW16G22   29.84R WCI  21
WATERTOWN      CLOUDY    30  28  92 NW14      29.80R WCI  20
MONROE         CLOUDY    32  30  93 NW10G22   29.83R WCI  24
JANESVILLE     CLOUDY    34  28  80 NW13      29.80R WCI  25
$$

WIZ051-052-058>065-066-070>072-291400-
SOUTHEAST WISCONSIN

CITY           SKY/WX    TMP DP  RH WIND       PRES   REMARKS
MILWAUKEE      FLURRIES  33  25  72 NW9       29.76R WCI  25
WAUKESHA       CLOUDY    30  25  80 NW16      29.78R WCI  19
MILWAUKEE/TIMM CLOUDY    32  25  74 NW6       29.78R WCI  26
RACINE         CLOUDY    33  26  75 NW8       29.77R WCI  26
BURLINGTON     CLOUDY    31  26  80 NW12      29.78R WCI  22
KENOSHA        CLOUDY    33  27  78 NW8       29.76R WCI  26
FOND DU LAC    LGT SNOW  30  25  81 NW16      29.80R WCI  19
SHEBOYGAN      CLOUDY    31  25  78 NW12      29.77R WCI  22
WEST BEND      FLURRIES  30  27  86 NW12      29.78R WCI  21
JUNEAU         CLOUDY    29  26  89 NW13G20   29.82R FOG     WCI  19
$$

LSZ147-162-291400-
LAKE SUPERIOR

STATION/POSITION TIME  TEMP    WIND        PRES    WAVE
                       AIR SEA DIR/SP/G            HT/PER
                 (UTC) (F)     (DEG/KT/KT) (MB)    (FT/S)
DEVILS ISLAND    1300   31     330/ 17/ 21 1015.3R
PORT WING        1200   32     320/ 19/ 24 1014.9
SAXON HARBOR     1240   32     330/ 16/ 18 1013.5R
$$

LMZ867-665-643>646-291400-
LAKE MICHIGAN

STATION/POSITION TIME  TEMP    WIND        PRES    WAVE
                       AIR SEA DIR/SP/G            HT/PER
                 (UTC) (F)     (DEG/KT/KT) (MB)    (FT/S)
NORTHPORT PIER   1300   30     310/  7/ 13 1008.8R
SISTER BAY       1213   29     340/  9/ 10   N/A
KEWAUNEE LAKESHO 1200   30     320/  2/  5 1006.9R
SHEBOYGAN LAKESH 1300   32     330/ 14/ 17 1009.2R
PORT WASHINGTON  1200   33        CALM     1008.1
MILWAUKEE LAKESH 1200   34     310/  4/  7   N/A
KENOSHA   LAKESH 1300   33     320/ 10/ 12 1008.1R
$$

TC  - TEMPERATURE IN CELSIUS
VSB - VISIBILITY IN STATUTE MILES
WCI - WIND CHILL INDEX
HX  - HEAT INDEX



USA.gov is the U.S. government's official web portal to all federal, state and local government web resources and services.